Location: SAPM � Hemmingford
(45.0500°N, 73.5833°W)
Time: 19:13:52
(UTC-05:00)

Daily predictions for brighter satellites

Satellite Brightness Start Highest point End
(mag) Time Altitude Azimuth Time Altitude Azimuth Time Altitude Azimuth
SJ-6B 3.6 17:56:04 10° SE 17:59:37 31° ENE 18:03:07 10° N
Meteor 1-14 Rocket 4.4 17:54:08 10° S 18:00:03 74° E 18:06:03 10° NNE
BREEZE-M DEB (TANK) 2.9 17:58:30 10° W 18:00:45 81° N 18:08:50 10° E
YAOGAN 1 4.1 17:57:07 10° S 18:01:14 42° W 18:05:23 10° NNW
DELTA 2 R/B (1) 4.3 17:56:05 10° WSW 18:01:28 49° S 18:06:52 10° ESE
Cosmos 407 Rocket 4.0 17:56:46 10° S 18:01:35 38° ESE 18:06:28 10° NE
Cosmos 1238 Rocket 4.0 18:00:27 10° NE 18:01:58 13° ENE 18:03:28 10° E
Resurs 01 Rocket 2.9 18:00:32 10° ESE 18:03:50 21° ENE 18:07:09 10° NNE
Cosmos 1340 3.8 18:01:45 10° NNE 18:04:48 22° ENE 18:07:49 10° SE
Cosmos 2322 Rocket 2.2 18:00:29 10° NNW 18:06:07 76° ENE 18:11:44 10° SSE
Cosmos 1782 Rocket 3.8 18:02:29 10° S 18:06:56 80° W 18:11:25 10° N
Meteor 1-28 Rocket 3.2 18:10:18 10° NNE 18:14:07 79° ESE 18:17:56 10° S
Thor Agena Rocket 4.3 18:11:44 10° N 18:16:42 56° WNW 18:21:37 10° SSW
BREEZE-M DEB (TANK) 3.1 18:15:16 10° WNW 18:17:49 49° NNE 18:22:56 11° E
COSMO-SKYMED 1 2.8 18:13:58 10° N 18:18:20 77° WNW 18:22:39 10° SSW
Cosmos 2322 4.3 18:13:15 10° NNW 18:18:33 37° NE 18:23:47 10° ESE
Tiangong 2 2.3 18:16:34 10° W 18:19:26 35° SSW 18:22:16 10° SE
Cosmos 1709 Rocket 4.2 18:17:59 10° SSE 18:23:53 47° E 18:29:45 10° NNE
Cosmos 1536 4.4 18:21:39 10° ESE 18:24:00 15° E 18:26:22 10° NE
DMSP B5D1-3 4.5 18:18:53 10° NNE 18:24:04 82° ESE 18:29:12 10° SSW
Okean 2 Rocket 3.5 18:21:00 10° SSW 18:25:27 69° W 18:29:54 10° N
FENGYUN 3A 3.9 18:20:43 10° SE 18:25:51 46° ENE 18:31:02 10° N
Resurs 1-3 4.5 18:22:49 10° SE 18:26:35 29° ENE 18:30:23 10° N
Cosmos 1140 Rocket 4.3 18:22:45 10° SSE 18:27:00 27° E 18:31:17 10° NE
Cosmos 1190 Rocket 3.9 18:21:53 10° SSW 18:27:03 74° ESE 18:32:15 10° NNE
Okean 1 3.3 18:23:29 10° N 18:27:32 68° E 18:31:35 10° SSE
Cosmos 1461 2.9 18:25:52 10° NW 18:29:53 79° SW 18:33:58 10° SSE
CZ-2D R/B 4.5 18:27:44 11° ESE 18:30:28 22° ENE 18:33:27 10° NNE
COSMOS 2428 3.7 18:26:31 10° N 18:31:19 27° NE 18:34:54 15° E
Meteor 2-4 Rocket 4.4 18:27:43 10° N 18:32:42 32° ENE 18:37:32 10° SE
CENTAUR R/B 4.4 18:25:28 10° NW 18:32:48 43° WSW 18:40:32 10° S
Cosmos 2292 Rocket 4.3 18:27:56 10° S 18:32:54 61° E 18:39:36 10° NNE
Cosmos 44 4.4 18:29:19 10° NW 18:33:29 40° WSW 18:37:30 10° S
deb Kosmos-1763 4.1 18:29:52 10° SSW 18:33:40 90° ESE 18:37:29 10° NNE
Meteor 1-25 Rocket 4.3 18:30:17 10° SSW 18:35:53 82° W 18:41:37 10° N
Spot 2 Rocket 3.8 18:32:24 10° SE 18:37:12 45° ENE 18:42:01 10° N
USA 186 4.0 18:39:35 11° NE 18:39:35 11° NE 18:39:45 10° NNE
H-2A R/B 3.3 18:36:22 10° SE 18:39:45 34° ENE 18:43:10 10° N
USA 229 DEB 4.5 18:33:37 10° NNW 18:40:05 36° NE 18:44:46 18° E
USA 229 4.5 18:33:43 10° NNW 18:40:09 36° NE 18:44:50 18° E
Cosmos 2237 Rocket 4.0 18:37:37 10° N 18:40:29 14° NE 18:42:02 13° ENE
Cosmos 2151 Rocket 3.6 18:39:35 10° S 18:44:05 89° ESE 18:48:39 10° N
Cosmos 1812 3.9 18:41:14 10° NNW 18:44:57 46° W 18:48:38 10° SSW
Helios 1A 3.8 18:44:51 19° ESE 18:46:56 29° ENE 18:50:33 10° N
SAR-Lupe-4 4.3 18:46:20 22° ESE 18:47:51 31° ENE 18:51:03 10° N
Meteor 1-11 Rocket 3.9 18:44:38 10° SSE 18:50:11 50° E 18:55:52 10° NNE
Okean 1 Rocket 3.5 18:46:44 10° SSE 18:50:54 39° E 18:55:06 10° NNE
GEOS 3 Rocket 3.7 18:47:33 10° NE 18:52:44 61° SE 18:57:57 10° SSW
Envisat 4.1 18:52:53 22° ENE 18:53:38 23° ENE 18:57:32 10° NNE
Cosmos 1954 Rocket 3.9 18:49:44 10° S 18:54:50 62° ESE 19:00:00 10° NNE
Cosmos 2219 4.1 18:52:45 10° SSE 18:57:26 27° ESE 18:58:55 24° ENE
HJ-1C 3.3 18:54:19 10° SSE 18:57:42 87° W 19:01:05 10° NNW
Cosmos 2360 Rocket 2.1 18:52:40 10° NNW 18:58:22 78° ENE 19:04:01 10° SSE
USA 215 4.4 18:54:26 11° NE 18:59:57 33° N 19:05:38 10° WNW
Cosmos 2219 Rocket 3.2 18:56:33 10° N 19:01:13 26° NE 19:02:23 24° ENE
Helios 1B rocket 3.9 19:07:50 21° SE 19:07:50 21° SE 19:09:31 10° SSE
Okean 1-7 Rocket 3.7 19:02:46 10° N 19:07:15 53° ENE 19:10:37 17° SSE
SL-16 R/B 4.2 19:10:14 10° NNE 19:12:09 12° NE 19:12:20 12° NE
Cosmos 1602 3.7 19:08:53 10° S 19:12:45 83° W 19:16:41 10° N
Cosmos 1633 2.7 19:09:34 10° SSW 19:13:14 75° W 19:16:56 10° N
Cosmos 1025 Rocket 3.1 19:13:27 10° N 19:17:45 51° ENE 19:18:31 45° ESE
ALOS 3.0 19:16:00 10° S 19:20:34 55° W 19:25:10 10° NNW
Cosmos 1833 4.2 19:17:06 10° SSW 19:22:48 88° WNW 19:28:29 10° NNE
Spot 1 3.8 19:21:16 36° SSE 19:22:51 74° ENE 19:26:59 10° N
Cosmos 2333 Rocket 3.0 19:21:38 10° N 19:26:47 32° NE 19:27:00 32° ENE
Cosmos 1818 4.1 19:24:59 10° SW 19:30:22 60° NW 19:35:16 13° NNE
SL-16 R/B 4.5 19:27:22 10° NW 19:31:48 24° WSW 19:36:13 10° SSW
Intercosmos 24 4.2 19:30:07 10° S 19:34:13 68° E 19:40:05 10° NNE
NOSS 0 Rocket 4.4 19:28:56 10° NNW 19:34:42 40° NE 19:35:12 39° ENE
Cosmos 1741 Rocket 3.9 19:29:58 10° S 19:35:08 66° ESE 19:37:55 27° NNE
SL-08 ROCKET BODY 4.3 19:29:43 10° S 19:35:52 81° E 19:42:06 10° N
Resurs 01 Rocket 2.8 19:35:52 10° S 19:40:03 42° W 19:44:16 10° NNW
Cosmos 1610 Rocket 4.5 19:36:06 10° SSE 19:42:09 56° E 19:48:10 10° NNE
Gbstr 26 Del rocket 4.1 19:41:55 10° SW 19:43:57 29° SSW 19:43:57 29° SSW
Cosmos 1570 Rocket 4.1 19:41:16 10° NNW 19:46:29 73° WSW 19:48:44 35° S
Cosmos 2327 Rocket 4.4 19:42:44 10° S 19:48:58 85° E 19:55:19 10° N
Meteor 1-5 Rocket 4.2 19:44:33 10° S 19:50:31 81° E 19:56:28 10° NNE
Tiangong 2 4.2 19:54:28 10° SW 19:54:34 10° SW 19:54:34 10° SW
Genesis I 4.1 19:53:50 10° NW 19:56:54 48° WNW 19:56:54 48° WNW
Cosmos 1536 4.0 19:56:18 10° SSW 20:00:06 42° WNW 20:03:55 10° N
Cosmos 2074 Rocket 4.3 20:02:01 10° SSW 20:08:12 66° W 20:14:30 10° N
Cosmos 2184 Rocket 4.3 20:02:37 10° SSW 20:08:55 68° W 20:15:11 10° N
COSMOS 2428 3.2 20:10:23 10° NNW 20:15:56 56° WSW 20:16:58 49° SSW
Cosmos 2237 Rocket 3.1 20:20:05 10° NNW 20:23:53 41° N 20:23:53 41° N
Nadezhda 3 Rocket 4.0 20:21:39 10° N 20:27:16 74° NW 20:27:16 74° NW
USA 229 DEB 3.9 20:24:28 10° NW 20:31:34 69° WSW 20:32:15 65° SSW
USA 229 3.9 20:24:34 10° NW 20:31:40 70° WSW 20:32:20 66° SSW
Envisat 3.9 20:33:04 47° WNW 20:33:04 47° WNW 20:37:16 10° NNW
Cosmos 2219 3.9 20:35:41 10° SW 20:41:02 51° WNW 20:41:02 51° WNW
USA 215 4.3 20:41:46 34° NNE 20:41:55 34° N 20:47:38 10° NW
NOSS 3-1 (A) 4.2 20:36:58 10° NW 20:43:24 58° NNE 20:43:24 58° NNE
Cosmos 2219 Rocket 3.1 20:40:03 10° NNW 20:44:08 45° WNW 20:44:08 45° WNW
ATLAS 2AS CENTAUR R/B 4.1 20:42:47 10° NNW 20:49:24 31° NNE 20:49:24 31° NNE
SL-16 R/B 4.1 20:52:09 10° NNW 20:54:13 22° N 20:54:13 22° N
NOSS 3-1 (C) 4.2 20:57:36 10° NW 21:03:46 65° NW 21:03:46 65° NW
Cosmos 2333 Rocket 3.8 21:05:46 10° NW 21:09:02 31° WNW 21:09:02 31° WNW
